Верхний Ат-Урях

Россия / Магаданская область     62°39′05″N   150°06′21″E
темп.,
°C
ветер,
м/с
пор.,
м/с
влажн.,
%
обл.,
%
осадки,
мм/ч
давл.,
гПа
погр.,
м
18 октября, пн
пн1823:00−20сз329580 0.0 102314
02:00−19ссз339576 0.0 102028
05:00−19ссз339595 0.0 101931
08:00−19ссз339697 0.0 101731
11:00−16ссз4108696 0.1 1015656
14:00−16ссз598399 0.0 1013676
17:00−19сз339060 0.0 101320
20:00−21сз338960 0.0 101416
19 октября, вт
вт1923:00−22зсз338760 0.0 101413
02:00−24зсз328930 0.0 101410
05:00−23зсз328772 0.0 101411
08:00−24зсз328863 0.0 101410
11:00−18сз238080 0.0 101396
14:00−17сз247866 0.0 1012274
17:00−21зсз228985 0.0 10149
20:00−23з228698 0.0 101510
20 октября, ср
ср2023:00−24з228685 0.0 10169
02:00−26з228825 0.0 10179
05:00−26зюз22875 0.0 10189
08:00−27зюз22882 0.0 10199
11:00−21зюз11810 0.0 101756
14:00−18юз11771 0.0 1016109
17:00−23зюз21871 0.0 10169
20:00−27зюз22872 0.0 10189
21 октября, чт
чт2123:00−28зюз22862 0.0 10179
02:00−28зюз22882 0.0 10179
05:00−29зюз22895 0.0 10189
08:00−29зюз21895 0.0 10189
11:00−23юз11811 0.0 101655
14:00−20ююз01785 0.0 101497
17:00−24зюз11875 0.0 10149
20:00−27зюз21865 0.0 10169
22 октября, пт
пт2223:00−27зюз21855 0.0 10159
02:00−28зюз21875 0.0 10159
05:00−28зюз11885 0.0 10159
08:00−28зюз11905 0.0 10159
11:00−23ююз00845 0.0 101454
14:00−20юв108319 0.0 101298
17:00−24юз119332 0.0 10149
20:00−26з119142 0.0 10159